World > North America > United States > Ohio > North Industry  

North Industry, OH Hourly Weather Updates

Feedback E-mail the Weather

Quick Clicks

North Industry, OH Weather Maps

°F °C°F °C
North Industry Weather Map
UTC Time: 6/13/2024, 03:03
Your Time:

North Industry, OH Regional Weather

Expires:202406130400;;920081
ASUS41 KCLE 130302
RWRCLE
OHIO REGIONAL WEATHER ROUNDUP
NATIONAL WEATHER SERVICE CLEVELAND, OH
1100 PM EDT WED JUN 12 2024

NOTE: "FAIR" INDICATES FEW OR NO CLOUDS BELOW 12,000 FEET WITH NO
SIGNIFICANT WEATHER AND/OR OBSTRUCTIONS TO VISIBILITY.


OHZ009>014-019>023-028>033-038-089-130400-
   NORTHEAST OHIO
  
CITY           SKY/WX    TMP DP  RH WIND       PRES   REMARKS
CLE-HOPKINS    PTCLDY    73  50  44 S12       29.94S                  
CLE-LAKEFRONT  PTCLDY    78  51  38 S10       29.93F                  
CUY CO. ARPT   CLEAR     72  52  49 S8        29.97S                  
LORAIN-ELYRIA  CLEAR     72  52  49 S9        29.96S                  
ASHTABULA      PTCLDY    66  53  63 S6        29.97S                  
AKRON-CANTON   PTCLDY    68  51  54 S6        30.00S                  
WOOSTER        CLEAR     68  53  58 S5        30.00S                  
MANSFIELD      CLEAR     69  51  52 S9        29.99S                  
YOUNGSTOWN     PTCLDY    68  52  56 S6        30.00R                  
$$


SKY/WX - Weather  TMP - Temperature  DP - Dew Point  RH - Humidity
WIND - Wind Direction/Speed PRES - Barometric Pressure VSB - Visibility
WCI - Wind Chill Index E13G22 Wind - East Wind 13 mph/Gusts of 22 mph

Trending Headlines

Trending Entertainment Headlines

North Industry Radar Loop

Use the map search tool if you want to place a location marker on the radar map...

North Industry Quick Facts

National Two Day Weather Forecast


E-mail the North Industry Weather Forecast

Voice your opinion or tell us about page issues...